• In United Kingdom
  • List of Countries
  • For 7 days
  • Water Temperature
  • Satellite Maps
  • Weather Map
  • Weather Widgets
  • user-avatar
    Login

    Hourly Weather Shusha

    Today, 18 January, Thursday

    Time Temperature Precipitation Wind Pressure Humidity
    00:00 -2°C° 0 mm 1 mps 655 mmHg 66%
    01:00 -2°C° 0 mm 1 mps 655 mmHg 65%
    02:00 -2°C° 0 mm 1 mps 655 mmHg 65%
    03:00 -4°C° 0 mm 2 mps 654 mmHg 67%
    04:00 -2°C° 0 mm 1 mps 654 mmHg 67%
    05:00 -1°C° 0 mm 1 mps 654 mmHg 67%
    06:00 -1°C° 0 mm 1 mps 654 mmHg 67%
    07:00 -1°C° 0 mm 1 mps 654 mmHg 67%
    08:00 0°C° 0 mm 1 mps 655 mmHg 66%
    09:00 +1°C° 0 mm 1 mps 655 mmHg 65%
    10:00 +2°C° 0 mm 1 mps 654 mmHg 62%
    11:00 +3°C° 0 mm 1 mps 654 mmHg 59%
    12:00 +3°C° 0 mm 2 mps 654 mmHg 56%
    13:00 +3°C° 0 mm 2 mps 653 mmHg 56%
    14:00 +3°C° 0 mm 2 mps 653 mmHg 56%
    15:00 +3°C° 0 mm 2 mps 653 mmHg 56%
    16:00 +2°C° 0 mm 2 mps 652 mmHg 61%
    17:00 -1°C° 0 mm 2 mps 652 mmHg 65%
    18:00 0°C° 0 mm 1 mps 652 mmHg 70%
    19:00 0°C° 0 mm 1 mps 651 mmHg 69%
    20:00 -2°C° 0 mm 2 mps 651 mmHg 68%
    21:00 -2°C° 0 mm 2 mps 651 mmHg 67%
    22:00 -2°C° 0 mm 2 mps 651 mmHg 66%
    23:00 -2°C° 0 mm 2 mps 651 mmHg 65%

    Tomorrow, 19 January, Friday

    Time Temperature Precipitation Wind Pressure Humidity
    00:00 -2°C° 0 mm 2 mps 651 mmHg 64%
    01:00 -2°C° 0 mm 2 mps 651 mmHg 64%
    02:00 -2°C° 0 mm 2 mps 651 mmHg 63%
    03:00 -2°C° 0 mm 2 mps 651 mmHg 63%
    04:00 -2°C° 0 mm 2 mps 651 mmHg 62%
    05:00 -2°C° 0 mm 2 mps 651 mmHg 61%
    06:00 -2°C° 0 mm 2 mps 651 mmHg 61%
    07:00 -1°C° 0 mm 2 mps 652 mmHg 58%
    08:00 +2°C° 0 mm 2 mps 652 mmHg 56%
    09:00 +3°C° 0 mm 2 mps 653 mmHg 54%
    10:00 +5°C° 0 mm 1 mps 653 mmHg 50%
    11:00 +7°C° 0 mm 1 mps 653 mmHg 47%
    12:00 +8°C° 0 mm 1 mps 653 mmHg 44%
    13:00 +8°C° 0 mm 1 mps 653 mmHg 45%
    14:00 +8°C° 0 mm 1 mps 653 mmHg 45%
    15:00 +9°C° 0 mm 1 mps 653 mmHg 46%
    16:00 +7°C° 0 mm 1 mps 653 mmHg 50%
    17:00 +6°C° 0 mm 1 mps 653 mmHg 55%
    18:00 +4°C° 0 mm 1 mps 654 mmHg 59%
    19:00 +4°C° 0 mm 1 mps 653 mmHg 60%
    20:00 +4°C° 0 mm 1 mps 653 mmHg 60%
    21:00 +3°C° 0 mm 1 mps 653 mmHg 61%
    22:00 +3°C° 0 mm 1 mps 654 mmHg 61%
    23:00 +4°C° 0 mm 1 mps 654 mmHg 62%

    Day after tomorrow, 20 January, Saturday

    Time Temperature Precipitation Wind Pressure Humidity
    00:00 +4°C° 0 mm 1 mps 654 mmHg 62%
    01:00 +3°C° 0.1 mm 1 mps 654 mmHg 63%
    02:00 +3°C° 0.1 mm 1 mps 655 mmHg 64%
    03:00 +3°C° 0.1 mm 1 mps 655 mmHg 65%
    04:00 +3°C° 0.2 mm 1 mps 655 mmHg 67%
    05:00 +3°C° 0.2 mm 1 mps 656 mmHg 69%
    06:00 +3°C° 0.2 mm 1 mps 656 mmHg 70%
    07:00 +3°C° 0.2 mm 1 mps 657 mmHg 70%
    08:00 +3°C° 0.2 mm 1 mps 657 mmHg 70%
    09:00 +3°C° 0.2 mm 2 mps 658 mmHg 70%
    10:00 +3°C° 0.1 mm 2 mps 658 mmHg 67%
    11:00 +4°C° 0.1 mm 2 mps 659 mmHg 64%
    12:00 +5°C° 0.1 mm 2 mps 659 mmHg 60%
    13:00 +5°C° 0 mm 2 mps 659 mmHg 61%
    14:00 +6°C° 0 mm 1 mps 659 mmHg 61%
    15:00 +6°C° 0 mm 1 mps 660 mmHg 61%
    16:00 +5°C° 0 mm 1 mps 660 mmHg 65%
    17:00 +4°C° 0 mm 1 mps 660 mmHg 69%
    18:00 +3°C° 0 mm 1 mps 660 mmHg 72%
    19:00 +3°C° 0 mm 1 mps 661 mmHg 72%
    20:00 +2°C° 0 mm 1 mps 661 mmHg 72%
    21:00 +2°C° 0 mm 1 mps 661 mmHg 71%
    22:00 +2°C° 0 mm 1 mps 661 mmHg 70%
    23:00 +2°C° 0 mm 1 mps 661 mmHg 69%

    21 January, Sunday

    Time Temperature Precipitation Wind Pressure Humidity
    00:00 +1°C° 0 mm 1 mps 661 mmHg 68%
    01:00 +1°C° 0 mm 1 mps 661 mmHg 68%
    02:00 -1°C° 0 mm 2 mps 661 mmHg 67%
    03:00 -1°C° 0 mm 2 mps 661 mmHg 66%
    04:00 -1°C° 0 mm 2 mps 660 mmHg 65%
    05:00 -1°C° 0 mm 2 mps 660 mmHg 64%
    06:00 -1°C° 0 mm 2 mps 660 mmHg 62%
    07:00 +2°C° 0 mm 1 mps 661 mmHg 59%
    08:00 +3°C° 0 mm 1 mps 661 mmHg 56%
    09:00 +4°C° 0 mm 1 mps 661 mmHg 53%
    10:00 +5°C° 0 mm 1 mps 661 mmHg 51%
    11:00 +6°C° 0 mm 1 mps 661 mmHg 49%
    12:00 +6°C° 0 mm 2 mps 661 mmHg 46%
    13:00 +6°C° 0 mm 2 mps 661 mmHg 47%
    14:00 +7°C° 0 mm 2 mps 660 mmHg 48%
    15:00 +7°C° 0 mm 2 mps 660 mmHg 49%
    16:00 +6°C° 0 mm 1 mps 660 mmHg 53%
    17:00 +5°C° 0 mm 1 mps 660 mmHg 56%
    18:00 +4°C° 0 mm 1 mps 660 mmHg 60%
    19:00 +3°C° 0 mm 1 mps 660 mmHg 58%
    20:00 +2°C° 0 mm 2 mps 660 mmHg 56%
    21:00 +2°C° 0 mm 2 mps 660 mmHg 53%
    22:00 +2°C° 0 mm 2 mps 660 mmHg 51%
    23:00 +2°C° 0 mm 2 mps 659 mmHg 50%

    22 January, Monday

    Time Temperature Precipitation Wind Pressure Humidity
    00:00 +2°C° 0 mm 2 mps 659 mmHg 48%
    01:00 +2°C° 0 mm 2 mps 659 mmHg 47%
    02:00 +1°C° 0 mm 2 mps 659 mmHg 47%
    03:00 +1°C° 0 mm 2 mps 658 mmHg 46%
    04:00 +2°C° 0 mm 1 mps 658 mmHg 46%
    05:00 +2°C° 0 mm 1 mps 658 mmHg 46%
    06:00 +2°C° 0 mm 1 mps 658 mmHg 46%
    07:00 +3°C° 0 mm 1 mps 658 mmHg 46%
    08:00 +4°C° 0 mm 1 mps 658 mmHg 45%
    09:00 +5°C° 0 mm 1 mps 658 mmHg 44%
    10:00 +6°C° 0 mm 1 mps 658 mmHg 44%
    11:00 +7°C° 0 mm 1 mps 657 mmHg 43%
    12:00 +8°C° 0 mm 1 mps 657 mmHg 42%
    13:00 +8°C° 0 mm 1 mps 656 mmHg 44%
    14:00 +8°C° 0 mm 1 mps 656 mmHg 46%
    15:00 +8°C° 0 mm 1 mps 655 mmHg 48%
    16:00 +6°C° 0 mm 1 mps 655 mmHg 51%
    17:00 +5°C° 0 mm 1 mps 655 mmHg 54%
    18:00 +4°C° 0 mm 1 mps 655 mmHg 57%
    19:00 +3°C° 0 mm 1 mps 655 mmHg 55%
    20:00 +3°C° 0 mm 1 mps 655 mmHg 52%
    21:00 +2°C° 0 mm 2 mps 655 mmHg 50%
    22:00 +2°C° 0 mm 2 mps 654 mmHg 47%
    23:00 +2°C° 0 mm 2 mps 654 mmHg 45%

    23 January, Tuesday

    Time Temperature Precipitation Wind Pressure Humidity
    00:00 +2°C° 0 mm 2 mps 654 mmHg 42%
    01:00 +2°C° 0 mm 2 mps 654 mmHg 41%
    02:00 +2°C° 0 mm 2 mps 654 mmHg 39%
    03:00 +1°C° 0 mm 2 mps 654 mmHg 38%
    04:00 +1°C° 0 mm 2 mps 654 mmHg 37%
    05:00 +1°C° 0 mm 2 mps 654 mmHg 36%
    06:00 +1°C° 0 mm 2 mps 653 mmHg 36%
    07:00 +2°C° 0 mm 2 mps 654 mmHg 35%
    08:00 +4°C° 0 mm 2 mps 654 mmHg 34%
    09:00 +5°C° 0 mm 2 mps 655 mmHg 33%
    10:00 +6°C° 0 mm 2 mps 655 mmHg 30%
    11:00 +8°C° 0 mm 2 mps 655 mmHg 28%
    12:00 +9°C° 0 mm 2 mps 655 mmHg 25%
    13:00 +9°C° 0 mm 2 mps 654 mmHg 27%
    14:00 +9°C° 0 mm 2 mps 654 mmHg 28%
    15:00 +9°C° 0 mm 2 mps 654 mmHg 30%
    16:00 +7°C° 0 mm 2 mps 654 mmHg 33%
    17:00 +7°C° 0 mm 1 mps 654 mmHg 37%
    18:00 +6°C° 0 mm 1 mps 654 mmHg 40%
    19:00 +5°C° 0 mm 1 mps 654 mmHg 41%
    20:00 +5°C° 0 mm 1 mps 655 mmHg 41%
    21:00 +5°C° 0 mm 1 mps 655 mmHg 41%
    22:00 +5°C° 0 mm 1 mps 655 mmHg 42%
    23:00 +4°C° 0 mm 1 mps 655 mmHg 42%
    Show more